Weather History for Rolla, ND

Change the Weather History Date:

Tuesday, November 12, 2013

  Actual Average (KRUG) Record (KRUG)
Temperature  
Mean Temperature 24 °F -  
Max Temperature 39 °F 33 °F 66 °F (1981)
Min Temperature 10 °F 16 °F -7 °F (1986)
Degree Days  
Heating Degree Days 40    
Moisture  
Dew Point 18 °F    
Average Humidity 77    
Maximum Humidity 93    
Minimum Humidity 61    
Precipitation  
Precipitation 0.00 in - - ()
Sea Level Pressure  
Sea Level Pressure 30.32 in    
Wind  
Wind Speed 14 mph (SW)    
Max Wind Speed 21 mph    
Max Gust Speed 26 mph    
Visibility 10 miles    
Events      
Averages and records for this station are not official NWS values.
T = Trace of Precipitation, MM = Missing Value Source: NWS Daily Summary

Daily Weather History Graph

Daily Weather History Graph

Search for Another Location

Airport:

Trip Planner

Search our weather history database for the weather conditions in past years. The results will help you decide how hot, cold, wet, or windy it might be!

Date:

Astronomy

Nov. 12, 2013 Rise Set
Actual Time 7:43 AM CST 5:01 PM CST
Civil Twilight 7:09 AM CST 5:35 PM CST
Nautical Twilight 6:30 AM CST 6:13 PM CST
Astronomical Twilight 5:53 AM CST 6:50 PM CST
Moon 2:38 PM CST (11/12) 2:10 AM CST (11/12)
Length of Visible Light 10h 26m
Length of Day
9h 17m
Waxing Gibbous, 76% of the Moon is Illuminated
Nov 12
Waxing Gibbous
Nov 17
Full
Nov 25
Last Quarter
Dec 2
New
Dec 9
First Quarter

Hourly Weather History & Observations

Time (CST) Temp. Windchill Dew Point Humidity Pressure Visibility Wind Dir Wind Speed Gust Speed Precip Events Conditions
12:15 AM 10.4 °F -7.2 °F -0.4 °F 62% 30.57 in 10.0 mi SW 17.3 mph - N/A   Clear
12:55 AM 10.4 °F -6.0 °F -0.4 °F 62% 30.57 in 10.0 mi SW 15.0 mph - N/A   Clear
1:15 AM 10.4 °F -6.0 °F -0.4 °F 62% 30.56 in 10.0 mi SW 15.0 mph - N/A   Clear
1:35 AM 10.4 °F -5.4 °F -0.4 °F 62% 30.56 in 10.0 mi SW 13.8 mph - N/A   Clear
1:55 AM 10.4 °F -5.4 °F 1.4 °F 67% 30.55 in 10.0 mi SW 13.8 mph - N/A   Clear
2:15 AM 10.4 °F -2.4 °F 1.4 °F 67% 30.54 in 10.0 mi SW 9.2 mph - N/A   Clear
2:35 AM 10.4 °F -2.4 °F 3.2 °F 73% 30.54 in 10.0 mi SSW 9.2 mph - N/A   Clear
2:55 AM 12.2 °F -2.5 °F 5.0 °F 73% 30.52 in 10.0 mi SW 12.7 mph - N/A   Clear
3:15 AM 12.2 °F -1.0 °F 5.0 °F 73% 30.52 in 10.0 mi SW 10.4 mph 17.3 mph N/A   Clear
3:35 AM 12.2 °F -0.2 °F 5.0 °F 73% 30.51 in 10.0 mi SW 9.2 mph - N/A   Clear
3:55 AM 14.0 °F 2.0 °F 6.8 °F 73% 30.51 in 10.0 mi SSW 9.2 mph - N/A   Clear
4:15 AM 14.0 °F 2.0 °F 8.6 °F 79% 30.51 in 10.0 mi SW 9.2 mph - N/A   Clear
4:35 AM 15.8 °F 3.4 °F 8.6 °F 73% 30.50 in 10.0 mi SW 10.4 mph 19.6 mph N/A   Clear
4:55 AM 15.8 °F 3.4 °F 8.6 °F 73% 30.50 in 10.0 mi SW 10.4 mph - N/A   Clear
5:15 AM 15.8 °F 2.1 °F 8.6 °F 73% 30.49 in 10.0 mi SW 12.7 mph - N/A   Clear
5:35 AM 15.8 °F 2.1 °F 10.4 °F 79% 30.49 in 10.0 mi SW 12.7 mph - N/A   Clear
5:55 AM 14.0 °F -0.8 °F 8.6 °F 79% 30.48 in 10.0 mi SW 13.8 mph - N/A   Clear
6:15 AM 14.0 °F -3.0 °F 10.4 °F 86% 30.47 in 10.0 mi SW 18.4 mph - N/A   Clear
6:35 AM 15.8 °F 0.3 °F 10.4 °F 79% 30.47 in 10.0 mi SW 16.1 mph - N/A   Clear
6:55 AM 14.0 °F -0.8 °F 10.4 °F 86% 30.46 in 10.0 mi SW 13.8 mph - N/A   Clear
7:15 AM 15.8 °F 0.9 °F 12.2 °F 86% 30.46 in 10.0 mi WSW 15.0 mph - N/A   Clear
7:35 AM 15.8 °F 0.3 °F 14.0 °F 93% 30.44 in 10.0 mi WSW 16.1 mph - N/A   Clear
7:55 AM 15.8 °F -1.1 °F 14.0 °F 93% 30.44 in 10.0 mi WSW 19.6 mph 25.3 mph N/A   Clear
8:15 AM 17.6 °F 0.9 °F 14.0 °F 86% 30.42 in 10.0 mi WSW 20.7 mph 26.5 mph N/A   Clear
8:35 AM 17.6 °F 1.3 °F 15.8 °F 93% 30.42 in 10.0 mi WSW 19.6 mph - N/A   Clear
8:55 AM 19.4 °F 4.1 °F 15.8 °F 86% 30.41 in 10.0 mi SW 18.4 mph - N/A   Clear
9:15 AM 19.4 °F 4.5 °F 15.8 °F 86% 30.40 in 10.0 mi SW 17.3 mph - N/A   Clear
9:35 AM 23.0 °F 8.3 °F 17.6 °F 80% 30.39 in 10.0 mi WSW 19.6 mph - N/A   Clear
9:55 AM 23.0 °F 8.3 °F 17.6 °F 80% 30.38 in 10.0 mi SW 19.6 mph 24.2 mph N/A   Clear
10:15 AM 23.0 °F 8.7 °F 17.6 °F 80% 30.38 in 10.0 mi SW 18.4 mph - N/A   Clear
10:35 AM 24.8 °F 10.7 °F 19.4 °F 80% 30.37 in 10.0 mi SW 19.6 mph - N/A   Clear
10:55 AM 24.8 °F 11.1 °F 19.4 °F 80% 30.37 in 10.0 mi SW 18.4 mph - N/A   Clear
11:15 AM 26.6 °F 14.3 °F 21.2 °F 80% 30.36 in 10.0 mi SW 16.1 mph - N/A   Clear
11:35 AM 28.4 °F 15.1 °F 23.0 °F 80% 30.35 in 10.0 mi SW 20.7 mph 24.2 mph N/A   Clear
11:55 AM 28.4 °F 15.1 °F 23.0 °F 80% 30.35 in 10.0 mi SW 20.7 mph 24.2 mph N/A   Clear
12:15 PM 32.0 °F 20.5 °F 24.8 °F 75% 30.33 in 10.0 mi SW 18.4 mph 21.9 mph N/A   Clear
12:35 PM 32.0 °F 21.2 °F 24.8 °F 75% 30.34 in 10.0 mi SW 16.1 mph 21.9 mph N/A   Clear
12:55 PM 33.8 °F 26.4 °F 24.8 °F 70% 30.33 in 10.0 mi SW 9.2 mph - N/A   Clear
1:15 PM 35.6 °F 27.5 °F 26.6 °F 70% 30.32 in 10.0 mi SW 11.5 mph - N/A   Clear
1:35 PM 37.4 °F 28.9 °F 26.6 °F 65% 30.31 in 10.0 mi SW 13.8 mph - N/A   Clear
1:55 PM 37.4 °F 29.8 °F 26.6 °F 65% 30.29 in 10.0 mi SW 11.5 mph - N/A   Clear
2:15 PM 37.4 °F 29.3 °F 26.6 °F 65% 30.29 in 10.0 mi SW 12.7 mph - N/A   Clear
2:35 PM 39.2 °F 31.6 °F 26.6 °F 61% 30.28 in 10.0 mi SW 12.7 mph 19.6 mph N/A   Clear
2:55 PM 39.2 °F 29.8 °F 26.6 °F 61% 30.27 in 10.0 mi SW 18.4 mph 23.0 mph N/A   Clear
3:15 PM 39.2 °F 30.5 °F 26.6 °F 61% 30.26 in 10.0 mi SW 16.1 mph - N/A   Clear
3:35 PM 39.2 °F 30.5 °F 26.6 °F 61% 30.25 in 10.0 mi SW 16.1 mph 21.9 mph N/A   Clear
3:55 PM 39.2 °F 32.5 °F 26.6 °F 61% 30.24 in 10.0 mi SW 10.4 mph - N/A   Clear
4:15 PM 37.4 °F 29.8 °F 26.6 °F 65% 30.24 in 10.0 mi SW 11.5 mph - N/A   Clear
4:35 PM 37.4 °F 29.8 °F 26.6 °F 65% 30.23 in 10.0 mi SW 11.5 mph - N/A   Clear
4:55 PM 35.6 °F 27.5 °F 26.6 °F 70% 30.21 in 10.0 mi SSW 11.5 mph - N/A   Clear
5:15 PM 32.0 °F 22.5 °F 26.6 °F 80% 30.20 in 10.0 mi SSW 12.7 mph - N/A   Clear
5:35 PM 32.0 °F 22.5 °F 26.6 °F 80% 30.19 in 10.0 mi SSW 12.7 mph - N/A   Clear
5:55 PM 32.0 °F 22.1 °F 26.6 °F 80% 30.18 in 10.0 mi SSW 13.8 mph - N/A   Clear
6:15 PM 32.0 °F 21.2 °F 26.6 °F 80% 30.16 in 10.0 mi SSW 16.1 mph - N/A   Clear
6:35 PM 32.0 °F 20.8 °F 26.6 °F 80% 30.15 in 10.0 mi SSW 17.3 mph - N/A   Clear
6:55 PM 32.0 °F 21.2 °F 26.6 °F 80% 30.14 in 10.0 mi SSW 16.1 mph - N/A   Clear
7:15 PM 32.0 °F 24.2 °F 26.6 °F 80% 30.14 in 10.0 mi SSW 9.2 mph - N/A   Clear
7:35 PM 32.0 °F 24.2 °F 26.6 °F 80% 30.13 in 10.0 mi SSW 9.2 mph - N/A   Clear
7:55 PM 30.2 °F 21.3 °F 26.6 °F 86% 30.12 in 10.0 mi SSW 10.4 mph - N/A   Clear
8:15 PM 30.2 °F 22.6 °F 24.8 °F 80% 30.11 in 10.0 mi South 8.1 mph - N/A   Clear
8:35 PM 28.4 °F 20.4 °F 24.8 °F 86% 30.10 in 10.0 mi South 8.1 mph - N/A   Clear
8:55 PM 28.4 °F 21.2 °F 24.8 °F 86% 30.09 in 10.0 mi South 6.9 mph - N/A   Clear
9:15 PM 28.4 °F 21.2 °F 24.8 °F 86% 30.08 in 10.0 mi South 6.9 mph - N/A   Clear
9:35 PM 26.6 °F 16.8 °F 24.8 °F 93% 30.06 in 10.0 mi South 10.4 mph - N/A   Clear
9:55 PM 26.6 °F 17.5 °F 24.8 °F 93% 30.05 in 10.0 mi South 9.2 mph - N/A   Clear
10:15 PM 26.6 °F 21.2 °F 24.8 °F 93% 30.05 in 10.0 mi SE 4.6 mph - N/A   Clear
10:35 PM 26.6 °F 19.1 °F 24.8 °F 93% 30.03 in 10.0 mi South 6.9 mph - N/A   Clear
10:55 PM 28.4 °F 19.7 °F 24.8 °F 86% 30.02 in 10.0 mi South 9.2 mph - N/A   Clear
11:15 PM 28.4 °F 19.1 °F 24.8 °F 86% 30.00 in 10.0 mi South 10.4 mph - N/A   Clear
11:35 PM 26.6 °F 17.5 °F 24.8 °F 93% 29.98 in 10.0 mi South 9.2 mph - N/A   Clear
11:55 PM 28.4 °F 18.5 °F 24.8 °F 86% 29.95 in 10.0 mi South 11.5 mph - N/A   Clear